Regional Weather Roundup
Issued by NWS Cleveland, OH

Home | Current Version | Previous Version | Text Only | Print | Product List | Glossary Off
Versions: 1 2 3 4 5 6 7 8 9 10 11 12 13 14 15 16 17 18 19 20 21 22 23 24 25 26 27 28 29 30 31 32 33 34 35 36 37 38 39 40 41 42 43 44 45 46 47 48 49 50

000
ASUS41 KCLE 302302
RWRCLE
OHIO REGIONAL WEATHER ROUNDUP
NATIONAL WEATHER SERVICE CLEVELAND, OH
700 PM EDT TUE SEP 30 2014

NOTE: "FAIR" INDICATES FEW OR NO CLOUDS BELOW 12,000 FEET WITH NO
SIGNIFICANT WEATHER AND/OR OBSTRUCTIONS TO VISIBILITY.

OHZ001>008-015>018-024>027-034-035-043-044-010000-
   NORTHWEST OHIO

CITY           SKY/WX    TMP DP  RH WIND       PRES   REMARKS
DEFIANCE       CLOUDY    58  48  69 N6        29.99R
FINDLAY        CLOUDY    58  50  75 N8        29.97R
TOLEDO EXPRESS CLOUDY    57  49  74 N3        29.98R
TOLEDO EXEC    CLOUDY    58  49  72 NW5       29.98R
LIMA           CLOUDY    58  48  69 NW5       29.97S
$$

OHZ009>014-019>023-028>033-038-089-010000-
   NORTHEAST OHIO

CITY           SKY/WX    TMP DP  RH WIND       PRES   REMARKS
CLE-HOPKINS    CLOUDY    59  52  77 NW7       29.98R
CLE-LAKEFRONT  CLOUDY    60  53  77 N10       29.96R
CUY CO. ARPT   CLOUDY    59  57  94 N9        29.96R
LORAIN-ELYRIA  CLOUDY    61  53  75 N5        29.97R
ASHTABULA      MOCLDY    60  55  83 N6        29.96R
AKRON-CANTON   MOCLDY    60  52  74 N12       29.94R
WOOSTER        CLOUDY    59  52  77 N9        29.95R
MANSFIELD      CLOUDY    57  52  83 N10       29.96R
YOUNGSTOWN     PTCLDY    59  55  87 N9        29.93S
$$

OHZ042-051>053-060>062-070>072-077>081-010000-
  SOUTHWEST OHIO

CITY           SKY/WX    TMP DP  RH WIND       PRES   REMARKS
CINC-COVINGTON MOCLDY    69  57  65 N13       29.92R
CINC-LUNKEN    PTCLDY    67  58  72 N9        29.93R
HAMILTON       PTCLDY    64  56  75 NE8       29.95R
DAYTON         PTCLDY    59  49  69 N9        29.97R
WRIGHT-PAT AFB CLEAR     60  49  68 N8        29.95S
DAYTON GENERAL PTCLDY    61  53  75 N6        29.94R
WILMINGTON     CLOUDY    60  55  83 N9        29.95R
$$

OHZ036-037-039>041-045>050-054>059-063>069-073>076-082>088-010000-
  CENTRAL AND SOUTHEAST OHIO

CITY           SKY/WX    TMP DP  RH WIND       PRES   REMARKS
COLUMBUS       PTCLDY    57  49  74 NW8       29.94R
OSU AIRPORT    PTCLDY    57  49  74 N8        29.95R
BOLTON FIELD   CLEAR     57  50  77 NW8       29.95R
RICKENBACK AFB CLOUDY    59  52  78 N7        29.94R
NEWARK         CLEAR     59  54  83 W7        29.92R
MARION         CLOUDY    60  50  69 N8        29.96R
LANCASTER      CLOUDY    60  55  83 NW9       29.94R
ZANESVILLE     CLOUDY    62  57  83 NW6       29.92R
NEW PHILLY     PTCLDY    62  55  77 N7        29.93R
$$



USA.gov is the U.S. government's official web portal to all federal, state and local government web resources and services.